Flag for Ireland Weather past 2 weeks in Cork, Ireland

Now
54 °F

Overcast.


Feels Like: 54 °F
Forecast: 55 / 62 °F
Wind: 2 mph from Southwest

Location: Cork Airport

Current Time: Sep 23, 2014 at 9:28:57 PM

Latest Report: Sep 23, 2014 at 8:00 PM


Visibility: 19 mi

Pressure: 30.08 "Hg

Humidity: 91%

Dew point: 51 °F

Location of CorkLocation

Historic Weather in Cork — Graph

°F

Cork temperature yesterday

Maximum temperature yesterday: 64 °F (at 4:00 PM)
Minimum temperature yesterday: 52 °F (at 10:00 PM)
Average temperature yesterday: 56 °F

Past Weeks' High & Low Weather Summary

 TemperatureHumidityPressure
High67 °F (Sep 17, 3:00 PM)100% (Sep 11, 3:00 AM)30.36 "Hg (Sep 11, 3:00 AM)
Low47 °F (Sep 9, 7:00 AM)61% (Sep 9, 2:00 PM)29.76 "Hg (Sep 18, 3:00 PM)
Average58 °F89%30.10 "Hg
* Reported Sep 8 8:00 PM — Sep 23 8:00 PM, Cork, Weather by CustomWeather, © 2014

Note: Actual official high and low records may vary slightly from our data, if they occured in-between our weather recording intervals... More about our weather records

Advertising

Cork weather history for previous 24 hours

 ConditionsComfort  
Time TempWeatherWind HumidityBarometerVisibility
8:00 PM
Sep 23
54 °FOvercast.2 mph91%30.08 "Hg19 mi
7:00 PM55 °FOvercast.3 mph87%30.08 "Hg16 mi
6:00 PM57 °FOvercast.5 mph81%30.07 "Hg25 mi
5:00 PM56 °FOvercast.5 mph86%30.07 "Hg25 mi
4:00 PM61 °FOvercast.5 mph65%30.08 "Hg25 mi
3:00 PM62 °FOvercast.5 mph71%30.09 "Hg37 mi
2:00 PM60 °FOvercast.5 mph82%30.11 "Hg37 mi
1:00 PM59 °FLow clouds.3 mph90%30.11 "Hg34 mi
12:00 PM57 °FOvercast.2 mph95%30.13 "Hg28 mi
11:00 AM56 °FFog.3 mph98%30.13 "Hg19 mi
10:00 AM57 °FFog.5 mph99%30.14 "Hg0 mi
9:00 AM56 °FLow clouds.3 mph100%30.14 "Hg2 mi
8:00 AM55 °FRain. Low clouds.5 mph99%30.15 "Hg1 mi
7:00 AM56 °FFog.2 mph100%30.15 "Hg1 mi
6:00 AM56 °FFog.2 mph99%30.16 "Hg2 mi
5:00 AM55 °FFog.2 mph99%30.18 "Hg4 mi
4:00 AM54 °FFog.2 mph99%30.19 "Hg5 mi
3:00 AM52 °FFog.3 mph99%30.21 "Hg5 mi
2:00 AM51 °FFog.5 mph99%30.24 "Hg5 mi
1:00 AM50 °FFog.2 mph98%30.24 "Hg4 mi
12:00 AM50 °FPassing clouds.3 mph97%30.26 "Hg9 mi
11:00 PM
Sep 22
52 °FPassing clouds.3 mph96%30.26 "Hg11 mi
10:00 PM52 °FPassing clouds.5 mph96%30.27 "Hg11 mi
9:00 PM53 °FPassing clouds.5 mph95%30.27 "Hg11 mi
Weather by CustomWeather, © 2014

See weather overviewHow to use our weather pages